Flag Weather past 2 weeks in Haltern am See, North Rhine-Westphalia, Germany

Now
41 °F

Clear.


Feels Like: 36 °F
Forecast: 38 / 50 °F
Wind: 7 mph from Southeast

Location: Dortmund / Wickede

Current Time: Nov 21, 2014 at 5:53:37 PM

Latest Report: Nov 21, 2014 at 5:20 PM


Visibility: 10 mi

Pressure: 30.15 "Hg

Humidity: 81%

Dew point: 36 °F

Location of Haltern am SeeLocation

Historic Weather in Haltern am See — Graph

°F

Haltern am See temperature yesterday

Maximum temperature yesterday: 45 °F (at 8:50 AM)
Minimum temperature yesterday: 39 °F (at 9:50 PM)
Average temperature yesterday: 43 °F

Past Weeks' High & Low Weather Summary

 TemperatureHumidityPressure
High57 °F (Nov 9, 1:20 PM)93% (Nov 11, 7:50 AM)30.33 "Hg (Nov 11, 7:50 AM)
Low32 °F (Nov 21, 5:20 AM)51% (Nov 9, 2:20 PM)29.50 "Hg (Nov 16, 12:50 PM)
Average48 °F80%29.82 "Hg
* Reported Nov 6 4:20 PM — Nov 21 4:20 PM, Haltern am See, Weather by CustomWeather, © 2014

Note: Actual official high and low records may vary slightly from our data, if they occured in-between our weather recording intervals... More about our weather records

Advertising

Haltern am See weather history for previous 24 hours

 ConditionsComfort  
Time TempWeatherWind HumidityBarometerVisibility
4:20 PM
Nov 21
43 °FPassing clouds.7 mph76%30.15 "HgN/A
3:50 PM45 °FSunny.8 mph71%30.15 "Hg10 mi
3:20 PM45 °FSunny.10 mph76%30.15 "Hg10 mi
2:50 PM46 °FSunny.10 mph71%30.15 "Hg10 mi
2:20 PM46 °FPassing clouds.8 mph71%30.18 "HgN/A
1:50 PM46 °FPassing clouds.8 mph71%30.18 "HgN/A
1:20 PM46 °FPassing clouds.8 mph71%30.18 "HgN/A
12:50 PM45 °FSunny.8 mph71%30.21 "Hg10 mi
12:20 PM45 °FPassing clouds.6 mph71%30.21 "HgN/A
11:50 AM43 °FPassing clouds.6 mph76%30.21 "HgN/A
11:20 AM41 °FSunny.6 mph81%30.24 "Hg10 mi
10:50 AM41 °FSunny.3 mph81%30.24 "Hg10 mi
10:20 AM39 °FSunny.6 mph81%30.24 "Hg10 mi
9:50 AM37 °FPassing clouds.5 mph81%30.24 "HgN/A
9:20 AM36 °FSunny.6 mph87%30.24 "Hg10 mi
8:50 AM34 °FClear.5 mph93%30.24 "Hg6 mi
8:20 AM32 °FClear.5 mph93%30.24 "Hg4 mi
7:50 AM32 °FClear.2 mph93%30.24 "Hg4 mi
7:20 AM32 °FClear.3 mph93%30.24 "Hg10 mi
6:50 AM32 °FClear.3 mph93%30.24 "Hg10 mi
6:20 AM34 °FClear.6 mph87%30.24 "Hg10 mi
5:50 AM34 °FClear.8 mph87%30.24 "Hg10 mi
5:20 AM32 °FClear.7 mph93%30.24 "Hg10 mi
10:50 PM
Nov 20
39 °FPassing clouds.5 mph87%30.30 "HgN/A
10:20 PM39 °FPassing clouds.6 mph87%30.33 "HgN/A
9:50 PM39 °FPassing clouds.6 mph87%30.33 "HgN/A
9:20 PM41 °FPassing clouds.7 mph81%30.33 "HgN/A
8:20 PM43 °FPassing clouds.7 mph81%30.33 "HgN/A
7:50 PM43 °FPassing clouds.5 mph81%30.33 "HgN/A
7:20 PM43 °FPassing clouds.5 mph81%30.33 "HgN/A
6:50 PM45 °FPassing clouds.5 mph76%30.30 "HgN/A
6:20 PM45 °FPassing clouds.7 mph76%30.33 "HgN/A
5:50 PM45 °FPassing clouds.3 mph81%30.30 "HgN/A
5:20 PM45 °FPassing clouds.6 mph76%30.30 "HgN/A
Weather by CustomWeather, © 2014

See weather overviewHow to use our weather pages